Time,TemperatureF,DewpointF,PressureIn,WindDirection,WindDirectionDegrees,WindSpeedMPH,WindSpeedGustMPH,Humidity,HourlyPrecipIn,Conditions,Clouds,dailyrainin,SoftwareType,DateUTC
2013-05-17 00:00:00,64.0,62.5,29.92,SE,132,0.0,2.0,95,0.00,,,0.00,VWS V14.01,2013-05-17 05:00:00,
2013-05-17 00:01:00,63.9,62.4,29.92,SE,132,0.0,0.0,95,0.00,,,0.00,VWS V14.01,2013-05-17 05:01:00,
2013-05-17 00:06:00,63.8,62.3,29.92,SE,134,0.0,1.0,95,0.00,,,0.00,VWS V14.01,2013-05-17 05:06:00,
2013-05-17 00:11:00,63.7,62.2,29.92,SE,134,0.0,1.0,95,0.00,,,0.00,VWS V14.01,2013-05-17 05:11:00,
2013-05-17 00:16:00,63.6,62.2,29.92,SE,134,0.0,1.0,95,0.00,,,0.00,VWS V14.01,2013-05-17 05:16:00,
2013-05-17 00:21:00,63.5,62.0,29.92,SE,143,0.0,1.0,95,0.00,,,0.00,VWS V14.01,2013-05-17 05:21:00,
2013-05-17 00:26:00,63.3,61.8,29.92,SSE,165,0.0,1.0,95,0.00,,,0.00,VWS V14.01,2013-05-17 05:26:00,
2013-05-17 00:31:00,63.2,62.0,29.92,SSE,166,0.0,1.0,96,0.00,,,0.00,VWS V14.01,2013-05-17 05:31:00,
2013-05-17 00:36:00,63.1,61.9,29.92,SSE,166,0.0,1.0,96,0.00,,,0.00,VWS V14.01,2013-05-17 05:36:00,
2013-05-17 00:41:00,63.0,61.8,29.92,SE,124,0.0,1.0,96,0.00,,,0.00,VWS V14.01,2013-05-17 05:41:00,
2013-05-17 00:46:00,63.0,61.8,29.92,SE,133,1.5,1.5,96,0.00,,,0.00,VWS V14.01,2013-05-17 05:46:00,
2013-05-17 00:51:00,63.0,61.8,29.92,SE,133,0.0,1.0,96,0.00,,,0.00,VWS V14.01,2013-05-17 05:51:00,
2013-05-17 00:55:00,63.0,61.8,29.92,SSE,160,1.5,1.5,96,0.00,,,0.00,VWS V14.01,2013-05-17 05:55:00,
2013-05-17 01:00:00,62.9,61.8,29.92,SSE,168,0.0,1.0,96,0.00,,,0.00,VWS V14.01,2013-05-17 06:00:00,
2013-05-17 01:05:00,62.9,61.8,29.92,South,169,0.0,1.0,96,0.00,,,0.00,VWS V14.01,2013-05-17 06:05:00,
2013-05-17 01:10:00,62.9,61.8,29.92,SSE,168,0.0,1.0,96,0.00,,,0.00,VWS V14.01,2013-05-17 06:10:00,
2013-05-17 01:15:00,62.8,61.7,29.92,South,169,0.0,1.0,96,0.00,,,0.00,VWS V14.01,2013-05-17 06:15:00,
2013-05-17 01:20:00,62.8,61.7,29.91,South,169,0.0,1.0,96,0.00,,,0.00,VWS V14.01,2013-05-17 06:20:00,
2013-05-17 01:25:00,62.8,61.7,29.91,South,169,0.0,1.0,96,0.00,,,0.00,VWS V14.01,2013-05-17 06:25:00,
2013-05-17 01:30:00,62.8,61.7,29.91,South,169,0.0,1.0,96,0.00,,,0.00,VWS V14.01,2013-05-17 06:30:00,
2013-05-17 01:35:00,62.7,61.5,29.91,South,169,0.0,1.0,96,0.00,,,0.00,VWS V14.01,2013-05-17 06:35:00,
2013-05-17 01:40:00,62.7,61.8,29.91,SSE,168,0.0,1.0,97,0.00,,,0.00,VWS V14.01,2013-05-17 06:40:00,
2013-05-17 01:45:00,62.6,61.7,29.91,South,169,0.0,1.0,97,0.00,,,0.00,VWS V14.01,2013-05-17 06:45:00,
2013-05-17 01:50:00,62.3,61.4,29.91,South,169,0.0,1.0,97,0.00,,,0.00,VWS V14.01,2013-05-17 06:50:00,
2013-05-17 01:55:00,62.1,61.2,29.91,South,169,0.0,1.0,97,0.00,,,0.00,VWS V14.01,2013-05-17 06:55:00,
2013-05-17 02:00:00,61.9,61.0,29.91,South,169,0.0,0.0,97,0.00,,,0.00,VWS V14.01,2013-05-17 07:00:00,
2013-05-17 02:05:00,61.7,60.8,29.91,South,169,0.0,0.0,97,0.00,,,0.00,VWS V14.01,2013-05-17 07:05:00,
2013-05-17 02:10:00,61.5,60.9,29.90,SSE,156,0.0,0.0,98,0.00,,,0.00,VWS V14.01,2013-05-17 07:10:00,
2013-05-17 02:15:00,61.4,60.8,29.90,SSE,150,0.0,0.0,98,0.00,,,0.00,VWS V14.01,2013-05-17 07:15:00,
2013-05-17 02:20:00,61.3,60.7,29.91,SSE,150,0.0,0.0,98,0.00,,,0.00,VWS V14.01,2013-05-17 07:20:00,
2013-05-17 02:25:00,61.1,60.5,29.91,SSE,150,0.0,0.0,98,0.00,,,0.00,VWS V14.01,2013-05-17 07:25:00,
2013-05-17 02:30:00,60.9,60.3,29.91,SSE,150,0.0,0.0,98,0.00,,,0.00,VWS V14.01,2013-05-17 07:30:00,
2013-05-17 02:35:00,60.6,60.0,29.91,SSE,150,0.0,0.0,98,0.00,,,0.00,VWS V14.01,2013-05-17 07:35:00,
2013-05-17 02:40:00,60.6,60.0,29.91,SSE,150,0.0,0.0,98,0.00,,,0.00,VWS V14.01,2013-05-17 07:40:00,
2013-05-17 02:45:00,60.4,59.8,29.91,SSE,150,0.0,0.0,98,0.00,,,0.00,VWS V14.01,2013-05-17 07:45:00,
2013-05-17 02:50:00,60.1,59.5,29.91,SSE,150,0.0,0.0,98,0.00,,,0.00,VWS V14.01,2013-05-17 07:50:00,
2013-05-17 02:55:00,59.9,59.3,29.91,SSE,150,0.0,0.0,98,0.00,,,0.00,VWS V14.01,2013-05-17 07:55:00,
2013-05-17 03:00:00,59.7,59.1,29.91,SSE,150,0.0,0.0,98,0.00,,,0.00,VWS V14.01,2013-05-17 08:00:00,
2013-05-17 03:05:00,59.5,59.2,29.91,SSE,150,0.0,0.0,99,0.00,,,0.00,VWS V14.01,2013-05-17 08:05:00,
2013-05-17 03:10:00,59.3,59.0,29.91,SSE,150,0.0,0.0,99,0.00,,,0.00,VWS V14.01,2013-05-17 08:10:00,
2013-05-17 03:15:00,59.2,58.9,29.91,SSE,150,0.0,0.0,99,0.00,,,0.00,VWS V14.01,2013-05-17 08:15:00,
2013-05-17 03:20:00,59.1,58.8,29.90,SSE,150,0.0,0.0,99,0.00,,,0.00,VWS V14.01,2013-05-17 08:20:00,
2013-05-17 03:25:00,59.1,58.8,29.90,SSE,150,0.0,0.0,99,0.00,,,0.00,VWS V14.01,2013-05-17 08:25:00,
2013-05-17 03:30:00,58.9,58.6,29.90,SSE,150,0.0,0.0,99,0.00,,,0.00,VWS V14.01,2013-05-17 08:30:00,
2013-05-17 03:35:00,58.9,58.6,29.90,SSE,150,0.0,0.0,99,0.00,,,0.00,VWS V14.01,2013-05-17 08:35:00,
2013-05-17 03:40:00,58.8,58.5,29.90,SSE,150,0.0,0.0,99,0.00,,,0.00,VWS V14.01,2013-05-17 08:40:00,
2013-05-17 03:45:00,58.8,58.8,29.90,SSE,150,0.0,0.0,100,0.00,,,0.00,VWS V14.01,2013-05-17 08:45:00,
2013-05-17 03:50:00,58.9,58.9,29.90,SSE,150,0.0,0.0,100,0.00,,,0.00,VWS V14.01,2013-05-17 08:50:00,
2013-05-17 03:55:00,59.0,59.0,29.91,SSE,150,0.0,0.0,100,0.00,,,0.00,VWS V14.01,2013-05-17 08:55:00,
2013-05-17 04:00:00,58.9,58.9,29.90,SSE,150,0.0,0.0,100,0.00,,,0.00,VWS V14.01,2013-05-17 09:00:00,
2013-05-17 04:05:00,58.7,58.4,29.90,SSE,150,0.0,0.0,99,0.00,,,0.00,VWS V14.01,2013-05-17 09:05:00,
2013-05-17 04:10:00,58.5,58.2,29.91,SSE,150,0.0,0.0,99,0.00,,,0.00,VWS V14.01,2013-05-17 09:10:00,
2013-05-17 04:15:00,58.4,58.4,29.91,SSE,150,0.0,0.0,100,0.00,,,0.00,VWS V14.01,2013-05-17 09:15:00,
2013-05-17 04:20:00,58.3,58.3,29.90,SSE,150,0.0,0.0,100,0.00,,,0.00,VWS V14.01,2013-05-17 09:20:00,
2013-05-17 04:25:00,58.1,57.8,29.91,SSE,150,0.0,0.0,99,0.00,,,0.00,VWS V14.01,2013-05-17 09:25:00,
2013-05-17 04:30:00,57.9,57.9,29.91,SSE,150,0.0,0.0,100,0.00,,,0.00,VWS V14.01,2013-05-17 09:30:00,
2013-05-17 04:35:00,57.9,57.9,29.91,SSE,150,0.0,0.0,100,0.00,,,0.00,VWS V14.01,2013-05-17 09:35:00,
2013-05-17 04:40:00,57.8,57.8,29.91,SSE,150,0.0,0.0,100,0.00,,,0.00,VWS V14.01,2013-05-17 09:40:00,
2013-05-17 04:45:00,57.7,57.7,29.91,SSE,150,0.0,0.0,100,0.00,,,0.00,VWS V14.01,2013-05-17 09:45:00,
2013-05-17 04:50:00,57.5,57.5,29.91,SSE,150,0.0,0.0,100,0.00,,,0.00,VWS V14.01,2013-05-17 09:50:00,
2013-05-17 04:55:00,57.4,57.4,29.91,SSE,150,0.0,0.0,100,0.00,,,0.00,VWS V14.01,2013-05-17 09:55:00,
2013-05-17 05:00:00,57.4,57.4,29.91,SSE,150,0.0,0.0,100,0.00,,,0.00,VWS V14.01,2013-05-17 10:00:00,
2013-05-17 05:05:00,57.5,57.5,29.91,SSE,150,0.0,0.0,100,0.00,,,0.00,VWS V14.01,2013-05-17 10:05:00,
2013-05-17 05:10:00,57.3,57.3,29.91,SSE,150,0.0,0.0,100,0.00,,,0.00,VWS V14.01,2013-05-17 10:10:00,
2013-05-17 05:15:00,57.0,57.0,29.91,SSE,150,0.0,0.0,100,0.00,,,0.00,VWS V14.01,2013-05-17 10:15:00,
2013-05-17 05:20:00,56.9,56.9,29.91,SSE,150,0.0,0.0,100,0.00,,,0.00,VWS V14.01,2013-05-17 10:20:00,
2013-05-17 05:25:00,56.6,56.6,29.91,SSE,150,0.0,0.0,100,0.00,,,0.00,VWS V14.01,2013-05-17 10:25:00,
2013-05-17 05:30:00,56.7,56.7,29.92,SSE,150,0.0,0.0,100,0.00,,,0.00,VWS V14.01,2013-05-17 10:30:00,
2013-05-17 05:35:00,56.7,56.7,29.92,SSE,150,0.0,0.0,100,0.00,,,0.00,VWS V14.01,2013-05-17 10:35:00,
2013-05-17 05:40:00,56.5,56.5,29.92,SSE,150,0.0,0.0,100,0.00,,,0.00,VWS V14.01,2013-05-17 10:40:00,
2013-05-17 05:45:00,56.3,56.3,29.92,SSE,150,0.0,0.0,100,0.00,,,0.00,VWS V14.01,2013-05-17 10:45:00,
2013-05-17 05:50:00,56.2,56.2,29.92,SSE,150,0.0,0.0,100,0.00,,,0.00,VWS V14.01,2013-05-17 10:50:00,
2013-05-17 05:55:00,56.1,56.1,29.92,SSE,150,0.0,0.0,100,0.00,,,0.00,VWS V14.01,2013-05-17 10:55:00,
2013-05-17 06:00:00,56.1,56.1,29.92,SSE,150,0.0,0.0,100,0.00,,,0.00,VWS V14.01,2013-05-17 11:00:00,
2013-05-17 06:05:00,55.9,55.9,29.92,SSE,150,0.0,0.0,100,0.00,,,0.00,VWS V14.01,2013-05-17 11:05:00,
2013-05-17 06:10:00,56.1,56.1,29.93,SSE,150,0.0,0.0,100,0.00,,,0.00,VWS V14.01,2013-05-17 11:10:00,
2013-05-17 06:15:00,56.1,56.1,29.93,SSE,150,0.0,0.0,100,0.00,,,0.00,VWS V14.01,2013-05-17 11:15:00,
2013-05-17 06:20:00,56.1,56.1,29.93,SSE,150,0.0,0.0,100,0.00,,,0.00,VWS V14.01,2013-05-17 11:20:00,
2013-05-17 06:25:00,56.1,56.1,29.93,SSE,150,0.0,0.0,100,0.00,,,0.00,VWS V14.01,2013-05-17 11:25:00,
2013-05-17 06:30:00,56.0,56.0,29.93,SSE,150,0.0,0.0,100,0.00,,,0.00,VWS V14.01,2013-05-17 11:30:00,
2013-05-17 06:35:00,56.0,56.0,29.93,SSE,150,0.0,0.0,100,0.00,,,0.00,VWS V14.01,2013-05-17 11:35:00,
2013-05-17 06:40:00,56.5,56.5,29.93,SSE,150,0.0,0.0,100,0.00,,,0.00,VWS V14.01,2013-05-17 11:40:00,
2013-05-17 06:45:00,57.0,57.0,29.94,SSE,150,0.0,0.0,100,0.00,,,0.00,VWS V14.01,2013-05-17 11:45:00,
2013-05-17 06:50:00,58.1,58.1,29.94,SSE,150,0.0,0.0,100,0.00,,,0.00,VWS V14.01,2013-05-17 11:50:00,
2013-05-17 06:55:00,59.1,59.1,29.94,SSE,150,0.0,0.0,100,0.00,,,0.00,VWS V14.01,2013-05-17 11:55:00,
2013-05-17 07:00:00,59.6,59.6,29.94,SSE,150,0.0,0.0,100,0.00,,,0.00,VWS V14.01,2013-05-17 12:00:00,
2013-05-17 07:05:00,59.9,59.9,29.94,SSE,150,0.0,0.0,100,0.00,,,0.00,VWS V14.01,2013-05-17 12:05:00,
2013-05-17 07:10:00,60.5,60.5,29.94,SSE,150,0.0,0.0,100,0.00,,,0.00,VWS V14.01,2013-05-17 12:10:00,
2013-05-17 07:15:00,61.6,61.3,29.95,SSE,150,0.0,0.0,99,0.00,,,0.00,VWS V14.01,2013-05-17 12:15:00,
2013-05-17 07:20:00,62.3,60.8,29.95,SSE,150,0.0,0.0,95,0.00,,,0.00,VWS V14.01,2013-05-17 12:20:00,
2013-05-17 07:25:00,63.0,61.2,29.95,SSE,150,0.0,0.0,94,0.00,,,0.00,VWS V14.01,2013-05-17 12:25:00,
2013-05-17 07:30:00,63.9,61.5,29.95,SSE,150,0.0,0.0,92,0.00,,,0.00,VWS V14.01,2013-05-17 12:30:00,
2013-05-17 07:35:00,64.4,61.7,29.95,SSE,150,0.0,0.0,91,0.00,,,0.00,VWS V14.01,2013-05-17 12:35:00,
2013-05-17 07:40:00,64.7,62.0,29.95,ESE,115,0.0,0.0,91,0.00,,,0.00,VWS V14.01,2013-05-17 12:40:00,
2013-05-17 07:45:00,65.1,62.1,29.95,SE,131,0.0,1.0,90,0.00,,,0.00,VWS V14.01,2013-05-17 12:45:00,
2013-05-17 07:50:00,64.8,61.8,29.95,East,83,1.5,3.0,90,0.00,,,0.00,VWS V14.01,2013-05-17 12:50:00,
2013-05-17 07:55:00,64.4,61.7,29.95,SSE,160,1.5,3.0,91,0.00,,,0.00,VWS V14.01,2013-05-17 12:55:00,
2013-05-17 08:00:00,64.4,61.7,29.95,South,174,1.5,1.5,91,0.00,,,0.00,VWS V14.01,2013-05-17 13:00:00,
2013-05-17 08:05:00,64.0,61.3,29.95,South,177,1.5,3.0,91,0.00,,,0.00,VWS V14.01,2013-05-17 13:05:00,
2013-05-17 08:10:00,63.7,61.0,29.96,SE,132,1.5,3.0,91,0.00,,,0.00,VWS V14.01,2013-05-17 13:10:00,
2013-05-17 08:15:00,63.8,61.4,29.96,SE,129,1.5,3.0,92,0.00,,,0.00,VWS V14.01,2013-05-17 13:15:00,
2013-05-17 08:20:00,63.8,61.4,29.96,SSE,160,0.0,3.0,92,0.00,,,0.00,VWS V14.01,2013-05-17 13:20:00,
2013-05-17 08:25:00,63.5,61.1,29.96,ESE,121,0.0,3.0,92,0.00,,,0.00,VWS V14.01,2013-05-17 13:25:00,
2013-05-17 08:30:00,63.5,61.4,29.96,ENE,78,3.0,3.0,93,0.00,,,0.00,VWS V14.01,2013-05-17 13:30:00,
2013-05-17 08:35:00,63.7,61.6,29.96,SSE,163,1.5,3.0,93,0.00,,,0.00,VWS V14.01,2013-05-17 13:35:00,
2013-05-17 08:40:00,64.5,62.4,29.97,East,80,3.0,3.0,93,0.00,,,0.00,VWS V14.01,2013-05-17 13:40:00,
2013-05-17 08:45:00,65.1,62.7,29.97,South,183,4.5,4.5,92,0.00,,,0.00,VWS V14.01,2013-05-17 13:45:00,
2013-05-17 08:50:00,65.7,63.0,29.97,SW,214,0.0,4.0,91,0.00,,,0.00,VWS V14.01,2013-05-17 13:50:00,
2013-05-17 08:55:00,66.2,63.2,29.97,SSE,167,6.0,6.0,90,0.00,,,0.00,VWS V14.01,2013-05-17 13:55:00,
2013-05-17 09:00:00,66.7,63.4,29.97,East,86,0.0,4.0,89,0.00,,,0.00,VWS V14.01,2013-05-17 14:00:00,
2013-05-17 09:05:00,67.6,63.9,29.97,SSE,162,1.5,4.0,88,0.00,,,0.00,VWS V14.01,2013-05-17 14:05:00,
2013-05-17 09:10:00,68.1,63.4,29.97,SE,129,1.5,4.0,85,0.00,,,0.00,VWS V14.01,2013-05-17 14:10:00,
2013-05-17 09:15:00,68.1,63.8,29.97,SSE,162,1.5,4.0,86,0.00,,,0.00,VWS V14.01,2013-05-17 14:15:00,
2013-05-17 09:20:00,68.4,64.1,29.97,South,169,1.5,4.0,86,0.00,,,0.00,VWS V14.01,2013-05-17 14:20:00,
2013-05-17 09:25:00,68.9,64.2,29.97,SE,129,0.0,4.0,85,0.00,,,0.00,VWS V14.01,2013-05-17 14:25:00,
2013-05-17 09:30:00,69.4,64.7,29.97,NE,51,0.0,4.0,85,0.00,,,0.00,VWS V14.01,2013-05-17 14:30:00,
2013-05-17 09:35:00,69.5,64.8,29.97,SE,143,0.0,4.0,85,0.00,,,0.00,VWS V14.01,2013-05-17 14:35:00,
2013-05-17 09:40:00,70.1,64.7,29.97,South,169,0.0,4.0,83,0.00,,,0.00,VWS V14.01,2013-05-17 14:40:00,
2013-05-17 11:37:00,73.4,63.8,29.97,North,352,3.0,3.0,72,0.00,,,0.00,VWS V14.01,2013-05-17 16:37:00,
2013-05-17 11:42:00,73.4,64.6,29.97,North,6,3.0,6.0,74,0.00,,,0.00,VWS V14.01,2013-05-17 16:42:00,
2013-05-17 11:47:00,73.7,66.1,29.97,NNW,345,3.0,6.0,77,0.00,,,0.00,VWS V14.01,2013-05-17 16:47:00,
2013-05-17 11:52:00,74.1,64.5,29.97,North,9,4.5,6.0,72,0.00,,,0.00,VWS V14.01,2013-05-17 16:52:00,
2013-05-17 11:57:00,74.2,65.4,29.97,North,349,6.0,6.0,74,0.00,,,0.00,VWS V14.01,2013-05-17 16:57:00,
2013-05-17 12:00:00,74.4,65.2,29.97,North,10,1.5,6.0,73,0.00,,,0.00,VWS V14.01,2013-05-17 17:00:00,
2013-05-17 12:02:00,74.4,64.0,29.97,North,356,1.5,5.0,70,0.00,,,0.00,VWS V14.01,2013-05-17 17:02:00,
2013-05-17 12:07:00,74.7,65.1,29.97,NNE,27,6.0,6.0,72,0.00,,,0.00,VWS V14.01,2013-05-17 17:07:00,
2013-05-17 12:12:00,75.9,65.8,29.97,NE,55,3.0,6.0,71,0.00,,,0.00,VWS V14.01,2013-05-17 17:12:00,
2013-05-17 12:17:00,75.5,65.0,29.97,East,85,1.5,6.0,70,0.00,,,0.00,VWS V14.01,2013-05-17 17:17:00,
2013-05-17 12:22:00,75.5,64.6,29.97,ENE,75,3.0,6.0,69,0.00,,,0.00,VWS V14.01,2013-05-17 17:22:00,
2013-05-17 12:27:00,74.8,64.4,29.97,North,5,0.0,6.0,70,0.00,,,0.00,VWS V14.01,2013-05-17 17:27:00,
2013-05-17 12:32:00,74.6,65.0,29.97,East,84,1.5,6.0,72,0.00,,,0.00,VWS V14.01,2013-05-17 17:32:00,
2013-05-17 12:37:00,75.8,65.3,29.96,SSW,208,3.0,6.0,70,0.00,,,0.00,VWS V14.01,2013-05-17 17:37:00,
2013-05-17 12:42:00,76.3,65.4,29.96,SE,124,1.5,6.0,69,0.00,,,0.00,VWS V14.01,2013-05-17 17:42:00,
2013-05-17 12:47:00,76.5,65.6,29.96,ENE,73,6.0,7.0,69,0.00,,,0.00,VWS V14.01,2013-05-17 17:47:00,
2013-05-17 12:52:00,76.2,64.4,29.96,NE,40,0.0,7.0,67,0.00,,,0.00,VWS V14.01,2013-05-17 17:52:00,
2013-05-17 12:57:00,76.8,65.4,29.96,NNW,335,1.5,7.0,68,0.00,,,0.00,VWS V14.01,2013-05-17 17:57:00,
2013-05-17 13:02:00,76.9,64.7,29.96,East,83,1.5,7.0,66,0.00,,,0.00,VWS V14.01,2013-05-17 18:02:00,
2013-05-17 13:07:00,76.6,64.8,29.96,NW,308,1.5,7.0,67,0.00,,,0.00,VWS V14.01,2013-05-17 18:07:00,
2013-05-17 13:12:00,77.0,65.6,29.96,East,96,3.0,7.0,68,0.00,,,0.00,VWS V14.01,2013-05-17 18:12:00,
2013-05-17 13:17:00,77.9,65.6,29.95,SSE,167,1.5,7.0,66,0.00,,,0.00,VWS V14.01,2013-05-17 18:17:00,
2013-05-17 13:22:00,78.9,65.2,29.95,NNE,25,4.5,7.0,63,0.00,,,0.00,VWS V14.01,2013-05-17 18:22:00,
2013-05-17 13:27:00,78.6,65.0,29.95,ENE,68,1.5,7.0,63,0.00,,,0.00,VWS V14.01,2013-05-17 18:27:00,
2013-05-17 13:32:00,78.3,64.7,29.95,NE,55,0.0,7.0,63,0.00,,,0.00,VWS V14.01,2013-05-17 18:32:00,
2013-05-17 13:37:00,77.9,64.8,29.95,North,355,1.5,7.0,64,0.00,,,0.00,VWS V14.01,2013-05-17 18:37:00,
2013-05-17 13:42:00,77.3,64.2,29.95,North,356,3.0,7.0,64,0.00,,,0.00,VWS V14.01,2013-05-17 18:42:00,
2013-05-17 13:47:00,77.2,65.0,29.95,SSE,157,1.5,7.0,66,0.00,,,0.00,VWS V14.01,2013-05-17 18:47:00,
2013-05-17 13:52:00,78.5,66.2,29.95,NE,47,0.0,7.0,66,0.00,,,0.00,VWS V14.01,2013-05-17 18:52:00,
2013-05-17 13:57:00,78.9,65.7,29.95,NE,46,3.0,7.0,64,0.00,,,0.00,VWS V14.01,2013-05-17 18:57:00,
2013-05-17 14:00:00,78.6,65.4,29.94,NNE,22,3.0,7.0,64,0.00,,,0.00,VWS V14.01,2013-05-17 19:00:00,
2013-05-17 14:02:00,78.5,65.3,29.94,North,357,1.5,5.0,64,0.00,,,0.00,VWS V14.01,2013-05-17 19:02:00,
2013-05-17 14:07:00,78.6,65.4,29.94,NNE,12,3.0,5.0,64,0.00,,,0.00,VWS V14.01,2013-05-17 19:07:00,
2013-05-17 14:12:00,78.7,65.1,29.94,ENE,60,3.0,5.0,63,0.00,,,0.00,VWS V14.01,2013-05-17 19:12:00,
2013-05-17 14:17:00,78.9,64.3,29.94,WNW,285,1.5,5.0,61,0.00,,,0.00,VWS V14.01,2013-05-17 19:17:00,
2013-05-17 14:22:00,78.6,65.0,29.95,ENE,65,6.0,6.0,63,0.00,,,0.00,VWS V14.01,2013-05-17 19:22:00,
2013-05-17 14:27:00,78.2,65.0,29.94,SSE,165,0.0,5.0,64,0.00,,,0.00,VWS V14.01,2013-05-17 19:27:00,
2013-05-17 14:32:00,78.9,64.3,29.94,ENE,77,3.0,5.0,61,0.00,,,0.00,VWS V14.01,2013-05-17 19:32:00,
2013-05-17 14:37:00,79.7,65.1,29.94,ENE,72,7.5,7.5,61,0.00,,,0.00,VWS V14.01,2013-05-17 19:37:00,
2013-05-17 14:42:00,79.7,65.1,29.94,ENE,75,3.0,6.0,61,0.00,,,0.00,VWS V14.01,2013-05-17 19:42:00,
2013-05-17 14:47:00,78.8,63.8,29.94,ENE,67,4.5,6.0,60,0.00,,,0.00,VWS V14.01,2013-05-17 19:47:00,
2013-05-17 14:52:00,78.1,64.0,29.94,NNE,32,1.5,6.0,62,0.00,,,0.00,VWS V14.01,2013-05-17 19:52:00,
2013-05-17 14:57:00,78.0,64.4,29.94,NE,55,1.5,6.0,63,0.00,,,0.00,VWS V14.01,2013-05-17 19:57:00,
2013-05-17 15:02:00,78.2,64.1,29.94,ENE,72,6.0,6.0,62,0.00,,,0.00,VWS V14.01,2013-05-17 20:02:00,
2013-05-17 15:07:00,78.2,64.6,29.94,NE,43,3.0,6.0,63,0.00,,,0.00,VWS V14.01,2013-05-17 20:07:00,
2013-05-17 15:12:00,78.2,64.1,29.94,ENE,72,1.5,6.0,62,0.00,,,0.00,VWS V14.01,2013-05-17 20:12:00,
2013-05-17 15:17:00,79.1,65.9,29.94,NNE,26,4.5,6.0,64,0.00,,,0.00,VWS V14.01,2013-05-17 20:17:00,
2013-05-17 15:22:00,79.4,65.3,29.94,East,81,3.0,6.0,62,0.00,,,0.00,VWS V14.01,2013-05-17 20:22:00,
2013-05-17 15:27:00,79.3,65.6,29.94,ENE,75,1.5,6.0,63,0.00,,,0.00,VWS V14.01,2013-05-17 20:27:00,
2013-05-17 15:32:00,80.0,64.9,29.93,NNE,20,4.5,6.0,60,0.00,,,0.00,VWS V14.01,2013-05-17 20:32:00,
2013-05-17 15:37:00,80.1,64.5,29.93,ENE,75,1.5,6.0,59,0.00,,,0.00,VWS V14.01,2013-05-17 20:37:00,
2013-05-17 15:42:00,80.2,64.6,29.93,ENE,77,3.0,6.0,59,0.00,,,0.00,VWS V14.01,2013-05-17 20:42:00,
2013-05-17 15:47:00,79.5,64.4,29.93,NE,43,6.0,6.0,60,0.00,,,0.00,VWS V14.01,2013-05-17 20:47:00,
2013-05-17 15:52:00,79.2,64.6,29.93,ENE,72,3.0,6.0,61,0.00,,,0.00,VWS V14.01,2013-05-17 20:52:00,
2013-05-17 15:57:00,79.5,64.9,29.93,NNW,339,3.0,6.0,61,0.00,,,0.00,VWS V14.01,2013-05-17 20:57:00,
2013-05-17 16:00:00,79.4,64.3,29.93,NNW,328,1.5,6.0,60,0.00,,,0.00,VWS V14.01,2013-05-17 21:00:00,
2013-05-17 16:02:00,79.3,63.7,29.93,WNW,291,3.0,4.0,59,0.00,,,0.00,VWS V14.01,2013-05-17 21:02:00,
2013-05-17 16:07:00,79.6,65.0,29.92,East,82,1.5,4.0,61,0.00,,,0.00,VWS V14.01,2013-05-17 21:07:00,
2013-05-17 16:12:00,79.7,64.6,29.92,ENE,60,1.5,4.0,60,0.00,,,0.00,VWS V14.01,2013-05-17 21:12:00,
2013-05-17 16:17:00,79.4,64.8,29.92,ENE,62,0.0,4.0,61,0.00,,,0.00,VWS V14.01,2013-05-17 21:17:00,
2013-05-17 16:22:00,79.3,65.2,29.92,SSW,201,1.5,4.0,62,0.00,,,0.00,VWS V14.01,2013-05-17 21:22:00,
2013-05-17 16:27:00,79.8,64.2,29.92,South,186,0.0,4.0,59,0.00,,,0.00,VWS V14.01,2013-05-17 21:27:00,
2013-05-17 16:32:00,80.5,65.3,29.92,NE,34,0.0,4.0,60,0.00,,,0.00,VWS V14.01,2013-05-17 21:32:00,
2013-05-17 16:37:00,80.9,65.2,29.92,SE,133,0.0,4.0,59,0.00,,,0.00,VWS V14.01,2013-05-17 21:37:00,
2013-05-17 16:42:00,81.1,64.9,29.92,East,82,1.5,4.0,58,0.00,,,0.00,VWS V14.01,2013-05-17 21:42:00,
2013-05-17 16:47:00,81.1,64.9,29.92,NNE,23,3.0,4.0,58,0.00,,,0.00,VWS V14.01,2013-05-17 21:47:00,
2013-05-17 16:52:00,80.8,65.2,29.92,NE,43,6.0,6.0,59,0.00,,,0.00,VWS V14.01,2013-05-17 21:52:00,
2013-05-17 16:57:00,80.5,63.9,29.92,NNE,26,3.0,4.0,57,0.00,,,0.00,VWS V14.01,2013-05-17 21:57:00,
2013-05-17 17:02:00,80.6,64.0,29.92,SSE,152,0.0,4.0,57,0.00,,,0.00,VWS V14.01,2013-05-17 22:02:00,
2013-05-17 17:07:00,80.9,64.8,29.91,NE,44,3.0,4.0,58,0.00,,,0.00,VWS V14.01,2013-05-17 22:07:00,
2013-05-17 17:12:00,80.7,64.1,29.92,NE,45,1.5,4.0,57,0.00,,,0.00,VWS V14.01,2013-05-17 22:12:00,
2013-05-17 17:17:00,80.3,64.7,29.92,NNE,14,0.0,4.0,59,0.00,,,0.00,VWS V14.01,2013-05-17 22:17:00,
2013-05-17 17:22:00,80.4,64.8,29.91,NNW,342,1.5,4.0,59,0.00,,,0.00,VWS V14.01,2013-05-17 22:22:00,
2013-05-17 17:27:00,80.3,64.2,29.92,East,84,1.5,4.0,58,0.00,,,0.00,VWS V14.01,2013-05-17 22:27:00,
2013-05-17 17:32:00,80.6,65.0,29.92,ESE,111,4.5,5.0,59,0.00,,,0.00,VWS V14.01,2013-05-17 22:32:00,
2013-05-17 17:37:00,80.6,65.0,29.92,NE,35,3.0,5.0,59,0.00,,,0.00,VWS V14.01,2013-05-17 22:37:00,
2013-05-17 17:42:00,80.5,63.9,29.92,NNE,28,0.0,5.0,57,0.00,,,0.00,VWS V14.01,2013-05-17 22:42:00,
2013-05-17 17:47:00,80.9,65.2,29.92,North,359,1.5,5.0,59,0.00,,,0.00,VWS V14.01,2013-05-17 22:47:00,
2013-05-17 17:52:00,81.0,64.3,29.92,NE,40,1.5,5.0,57,0.00,,,0.00,VWS V14.01,2013-05-17 22:52:00,
2013-05-17 17:57:00,81.0,64.8,29.92,ENE,58,3.0,5.0,58,0.00,,,0.00,VWS V14.01,2013-05-17 22:57:00,
2013-05-17 18:00:00,80.9,64.8,29.91,East,79,1.5,5.0,58,0.00,,,0.00,VWS V14.01,2013-05-17 23:00:00,
2013-05-17 18:02:00,80.8,64.7,29.92,ENE,77,0.0,4.0,58,0.00,,,0.00,VWS V14.01,2013-05-17 23:02:00,
2013-05-17 18:07:00,80.8,64.7,29.91,ENE,70,1.5,4.0,58,0.00,,,0.00,VWS V14.01,2013-05-17 23:07:00,
2013-05-17 18:12:00,80.8,64.7,29.91,East,97,1.5,4.0,58,0.00,,,0.00,VWS V14.01,2013-05-17 23:12:00,
2013-05-17 18:17:00,80.7,65.1,29.91,ENE,60,3.0,4.0,59,0.00,,,0.00,VWS V14.01,2013-05-17 23:17:00,
2013-05-17 18:22:00,80.3,64.2,29.91,NNE,32,0.0,4.0,58,0.00,,,0.00,VWS V14.01,2013-05-17 23:22:00,
2013-05-17 18:27:00,80.2,64.6,29.91,NE,46,3.0,4.0,59,0.00,,,0.00,VWS V14.01,2013-05-17 23:27:00,
2013-05-17 18:32:00,80.1,65.0,29.91,NNW,329,4.5,4.5,60,0.00,,,0.00,VWS V14.01,2013-05-17 23:32:00,
2013-05-17 18:37:00,79.9,64.8,29.91,NNE,33,1.5,4.0,60,0.00,,,0.00,VWS V14.01,2013-05-17 23:37:00,
2013-05-17 18:42:00,79.8,64.2,29.92,NNW,340,1.5,4.0,59,0.00,,,0.00,VWS V14.01,2013-05-17 23:42:00,
2013-05-17 18:47:00,79.6,65.0,29.91,NNE,23,1.5,4.0,61,0.00,,,0.00,VWS V14.01,2013-05-17 23:47:00,
2013-05-17 18:52:00,79.7,65.1,29.91,North,356,1.5,4.0,61,0.00,,,0.00,VWS V14.01,2013-05-17 23:52:00,
2013-05-17 18:57:00,79.7,65.1,29.91,NE,44,3.0,5.0,61,0.00,,,0.00,VWS V14.01,2013-05-17 23:57:00,
2013-05-17 19:02:00,79.5,64.9,29.91,NNE,23,1.5,5.0,61,0.00,,,0.00,VWS V14.01,2013-05-18 00:02:00,
2013-05-17 19:07:00,79.3,65.6,29.91,East,89,3.0,5.0,63,0.00,,,0.00,VWS V14.01,2013-05-18 00:07:00,
2013-05-17 19:12:00,78.9,64.8,29.91,NNE,26,1.5,5.0,62,0.00,,,0.00,VWS V14.01,2013-05-18 00:12:00,
2013-05-17 19:17:00,78.5,64.4,29.91,NE,55,3.0,5.0,62,0.00,,,0.00,VWS V14.01,2013-05-18 00:17:00,
2013-05-17 19:22:00,78.3,64.7,29.92,NE,39,1.5,5.0,63,0.00,,,0.00,VWS V14.01,2013-05-18 00:22:00,
2013-05-17 19:27:00,78.1,64.5,29.92,ENE,65,0.0,5.0,63,0.00,,,0.00,VWS V14.01,2013-05-18 00:27:00,
2013-05-17 19:32:00,77.9,64.8,29.92,ENE,66,1.5,5.0,64,0.00,,,0.00,VWS V14.01,2013-05-18 00:32:00,
2013-05-17 19:38:00,77.7,64.6,29.92,ENE,61,0.0,5.0,64,0.00,,,0.00,VWS V14.01,2013-05-18 00:38:00,
2013-05-17 20:24:00,75.3,65.3,29.92,East,95,0.0,0.0,71,0.00,,,0.00,VWS V14.01,2013-05-18 01:24:00,
2013-05-17 20:29:00,75.1,65.1,29.93,East,96,0.0,0.0,71,0.00,,,0.00,VWS V14.01,2013-05-18 01:29:00,
2013-05-17 20:34:00,75.0,65.0,29.93,East,94,0.0,1.0,71,0.00,,,0.00,VWS V14.01,2013-05-18 01:34:00,
2013-05-17 20:39:00,75.0,65.0,29.93,East,94,0.0,1.0,71,0.00,,,0.00,VWS V14.01,2013-05-18 01:39:00,
2013-05-17 20:44:00,75.1,65.1,29.93,East,94,0.0,1.0,71,0.00,,,0.00,VWS V14.01,2013-05-18 01:44:00,
2013-05-17 20:49:00,75.3,64.8,29.93,East,94,0.0,1.0,70,0.00,,,0.00,VWS V14.01,2013-05-18 01:49:00,
2013-05-17 20:54:00,75.4,64.9,29.93,NNE,21,0.0,3.0,70,0.00,,,0.00,VWS V14.01,2013-05-18 01:54:00,
2013-05-17 20:59:00,75.4,65.3,29.93,NNE,22,0.0,3.0,71,0.00,,,0.00,VWS V14.01,2013-05-18 01:59:00,
2013-05-17 21:04:00,75.2,65.2,29.93,NNE,22,0.0,3.0,71,0.00,,,0.00,VWS V14.01,2013-05-18 02:04:00,
2013-05-17 21:09:00,75.1,65.1,29.94,NNE,22,0.0,3.0,71,0.00,,,0.00,VWS V14.01,2013-05-18 02:09:00,
2013-05-17 21:14:00,75.2,65.2,29.94,ENE,64,1.5,3.0,71,0.00,,,0.00,VWS V14.01,2013-05-18 02:14:00,
2013-05-17 21:19:00,75.2,65.2,29.94,ENE,64,0.0,3.0,71,0.00,,,0.00,VWS V14.01,2013-05-18 02:19:00,
2013-05-17 21:24:00,75.1,65.5,29.94,ENE,70,0.0,3.0,72,0.00,,,0.00,VWS V14.01,2013-05-18 02:24:00,
2013-05-17 21:29:00,75.1,65.9,29.94,East,87,1.5,3.0,73,0.00,,,0.00,VWS V14.01,2013-05-18 02:29:00,
2013-05-17 21:34:00,75.0,65.8,29.94,ENE,77,1.5,3.0,73,0.00,,,0.00,VWS V14.01,2013-05-18 02:34:00,
2013-05-17 21:39:00,74.8,66.0,29.95,ENE,78,0.0,3.0,74,0.00,,,0.00,VWS V14.01,2013-05-18 02:39:00,
2013-05-17 21:44:00,74.7,66.3,29.95,East,84,0.0,3.0,75,0.00,,,0.00,VWS V14.01,2013-05-18 02:44:00,
2013-05-17 21:49:00,74.4,66.0,29.95,East,84,0.0,3.0,75,0.00,,,0.00,VWS V14.01,2013-05-18 02:49:00,
2013-05-17 21:54:00,74.2,66.2,29.95,East,84,0.0,3.0,76,0.00,,,0.00,VWS V14.01,2013-05-18 02:54:00,
2013-05-17 21:59:00,74.0,66.3,29.95,East,84,0.0,3.0,77,0.00,,,0.00,VWS V14.01,2013-05-18 02:59:00,
2013-05-17 22:00:00,73.9,66.2,29.95,East,84,0.0,3.0,77,0.00,,,0.00,VWS V14.01,2013-05-18 03:00:00,
2013-05-17 22:04:00,73.6,66.3,29.95,East,83,0.0,0.0,78,0.00,,,0.00,VWS V14.01,2013-05-18 03:04:00,
2013-05-17 22:09:00,73.4,66.1,29.95,East,84,0.0,1.0,78,0.00,,,0.00,VWS V14.01,2013-05-18 03:09:00,
2013-05-17 22:14:00,73.1,66.2,29.96,East,84,0.0,1.0,79,0.00,,,0.00,VWS V14.01,2013-05-18 03:14:00,
2013-05-17 22:19:00,72.8,65.9,29.96,East,84,0.0,1.0,79,0.00,,,0.00,VWS V14.01,2013-05-18 03:19:00,
2013-05-17 22:24:00,72.6,66.1,29.96,East,84,0.0,1.0,80,0.00,,,0.00,VWS V14.01,2013-05-18 03:24:00,
2013-05-17 22:29:00,72.3,66.2,29.96,East,84,0.0,1.0,81,0.00,,,0.00,VWS V14.01,2013-05-18 03:29:00,
2013-05-17 22:34:00,72.0,65.9,29.96,East,84,0.0,1.0,81,0.00,,,0.00,VWS V14.01,2013-05-18 03:34:00,
2013-05-17 22:39:00,71.8,65.7,29.96,East,84,0.0,1.0,81,0.00,,,0.00,VWS V14.01,2013-05-18 03:39:00,
2013-05-17 22:44:00,71.4,65.6,29.96,East,84,0.0,1.0,82,0.00,,,0.00,VWS V14.01,2013-05-18 03:44:00,
2013-05-17 22:49:00,71.1,65.7,29.96,East,84,0.0,1.0,83,0.00,,,0.00,VWS V14.01,2013-05-18 03:49:00,
2013-05-17 22:54:00,70.8,65.7,29.96,East,83,0.0,1.0,84,0.00,,,0.00,VWS V14.01,2013-05-18 03:54:00,
2013-05-17 22:59:00,70.5,65.4,29.96,East,83,0.0,1.0,84,0.00,,,0.00,VWS V14.01,2013-05-18 03:59:00,
2013-05-17 23:01:00,70.5,65.8,29.96,East,84,0.0,1.0,85,0.00,,,0.00,VWS V14.01,2013-05-18 04:01:00,
2013-05-17 23:06:00,70.0,65.6,29.97,East,83,0.0,1.0,86,0.00,,,0.00,VWS V14.01,2013-05-18 04:06:00,
2013-05-17 23:11:00,69.7,65.3,29.97,East,85,0.0,1.0,86,0.00,,,0.00,VWS V14.01,2013-05-18 04:11:00,
2013-05-17 23:16:00,69.7,65.7,29.97,East,85,0.0,1.0,87,0.00,,,0.00,VWS V14.01,2013-05-18 04:16:00,
2013-05-17 23:21:00,69.6,65.6,29.97,East,85,0.0,1.0,87,0.00,,,0.00,VWS V14.01,2013-05-18 04:21:00,
2013-05-17 23:26:00,69.7,65.7,29.97,East,95,0.0,1.0,87,0.00,,,0.00,VWS V14.01,2013-05-18 04:26:00,
2013-05-17 23:31:00,69.8,65.8,29.97,SE,139,0.0,1.0,87,0.00,,,0.00,VWS V14.01,2013-05-18 04:31:00,
2013-05-17 23:36:00,69.8,65.8,29.97,SE,142,0.0,1.0,87,0.00,,,0.00,VWS V14.01,2013-05-18 04:36:00,
2013-05-17 23:41:00,69.7,65.7,29.97,SE,145,0.0,1.0,87,0.00,,,0.00,VWS V14.01,2013-05-18 04:41:00,
2013-05-17 23:46:00,69.6,65.6,29.97,SE,145,0.0,1.0,87,0.00,,,0.00,VWS V14.01,2013-05-18 04:46:00,
2013-05-17 23:51:00,69.4,65.7,29.97,SE,145,0.0,1.0,88,0.00,,,0.00,VWS V14.01,2013-05-18 04:51:00,
2013-05-17 23:56:00,69.3,65.6,29.97,SE,144,0.0,1.0,88,0.00,,,0.00,VWS V14.01,2013-05-18 04:56:00,